This is the latest recevied weather packets stored in our database for station/object K5SVV. If no packets are shown the sender has not sent any weather packets the latest 10 day(s).
| Time | Temp. | Humidity | Pressure | Rain* | Wind** | Luminosity | Snow |
|---|---|---|---|---|---|---|---|
| 1777995248 | 23.89° C | 85% | 1005 hPa | 0 mm | - | 714 W/m² | - |
| 1777994944 | 23.33° C | 85% | 1005.1 hPa | 0 mm | - | 386 W/m² | - |
| 1777994636 | 23.33° C | 85% | 1005.1 hPa | 0 mm | - | 297 W/m² | - |
| 1777994335 | 23.89° C | 85% | 1005.3 hPa | 0 mm | - | 346 W/m² | - |
| 1777994033 | 23.33° C | 85% | 1005.4 hPa | 0 mm | - | 359 W/m² | - |
| 1777993729 | 23.33° C | 85% | 1005.7 hPa | 0 mm | - | 399 W/m² | - |
| 1777993427 | 23.89° C | 84% | 1005.4 hPa | 0 mm | - | 303 W/m² | - |
| 1777993121 | 23.33° C | 86% | 1005.3 hPa | 0 mm | - | 417 W/m² | - |
| 1777992819 | 23.33° C | 86% | 1005.4 hPa | 0 mm | - | 210 W/m² | - |
| 1777992516 | 22.78° C | 87% | 1005.2 hPa | 0 mm | - | 388 W/m² | - |
| 1777992216 | 22.78° C | 87% | 1005.2 hPa | 0 mm | - | 238 W/m² | - |
| 1777991912 | 22.78° C | 87% | 1005 hPa | 0 mm | - | 214 W/m² | - |
| 1777991609 | 22.78° C | 87% | 1005 hPa | 0 mm | - | 263 W/m² | - |
| 1777991306 | 22.78° C | 87% | 1004.9 hPa | 0 mm | - | 209 W/m² | - |
| 1777991004 | 22.78° C | 87% | 1004.7 hPa | 0 mm | - | 179 W/m² | - |
| 1777990701 | 22.78° C | 87% | 1004.7 hPa | 0 mm | - | 218 W/m² | - |
| 1777990398 | 22.78° C | 87% | 1004.8 hPa | 0 mm | - | 200 W/m² | - |
| 1777989791 | 22.78° C | 87% | 1004.8 hPa | 0 mm | - | 277 W/m² | - |
| 1777989488 | 22.78° C | 86% | 1004.5 hPa | 0 mm | - | 246 W/m² | - |
| 1777989183 | 22.78° C | 87% | 1004.7 hPa | 0 mm | - | 283 W/m² | - |
| 1777988874 | 22.78° C | 87% | 1004.7 hPa | 0 mm | - | 218 W/m² | - |
| 1777988572 | 22.22° C | 88% | 1004.9 hPa | 0 mm | - | 220 W/m² | - |
| 1777988268 | 22.22° C | 88% | 1004.8 hPa | 0 mm | - | 218 W/m² | - |
| 1777987965 | 22.22° C | 89% | 1004.6 hPa | 0 mm | - | 253 W/m² | - |
| 1777987661 | 22.22° C | 89% | 1004.5 hPa | 0 mm | - | 224 W/m² | - |
* Rain latest hour (hover to see other rain measurements)
** Current wind speed in m/s (hover to see current wind gust speed)